Weather History for KOLF - February, 2014

Change the Weather History Date:

Sunday, February 2, 2014

  Actual Average Record
Temperature  
Mean Temperature 5 °F -  
Max Temperature 19 °F 26 °F 45 °F (2000)
Min Temperature -9 °F 2 °F -40 °F (2011)
Degree Days  
Heating Degree Days 60    
Cooling Degree Days 0    
Moisture  
Dew Point -2 °F    
Average Humidity 70    
Maximum Humidity 83    
Minimum Humidity 54    
Precipitation  
Precipitation 0.00 in 0.00 in 0.01 in (2015)
Month to date precipitation T 0.01  
Year to date precipitation 0.06 0.32  
Sea Level Pressure  
Sea Level Pressure 30.18 in    
Wind  
Wind Speed 6 mph (WNW)    
Max Wind Speed 21 mph    
Max Gust Speed 28 mph    
Visibility 10 miles    
Events      
T = Trace of Precipitation, MM = Missing Value Source: NWS Daily Summary

Daily Weather History Graph

Daily Weather History Graph

Search for Another Location

Airport or City:

Trip Planner

Search our weather history database for the weather conditions in past years. The results will help you decide how hot, cold, wet, or windy it might be!

Date:

Astronomy

Feb. 02, 2014 Rise Set
Actual Time 7:28 AM MST 5:03 PM MST
Civil Twilight 6:55 AM MST 5:37 PM MST
Nautical Twilight 6:18 AM MST 6:14 PM MST
Astronomical Twilight 5:41 AM MST 6:50 PM MST
Moon 8:38 AM MST 9:12 PM MST
Length of Visible Light 10h 41m
Length of Day
9h 35m
Waxing Crescent, 12% of the Moon is Illuminated
Feb 2
Waxing Crescent
Feb 6
First Quarter
Feb 14
Full
Feb 22
Last Quarter
Mar 1
New

Hourly Weather History & Observations

Time (MST) Temp. Windchill Dew Point Humidity Pressure Visibility Wind Dir Wind Speed Gust Speed Precip Events Conditions
12:53 AM -9.0 °F -18.2 °F -13.0 °F 83% 30.17 in 10.0 mi West 3.5 mph - N/A   Clear
1:53 AM -6.0 °F - -13.0 °F 72% 30.16 in 10.0 mi Calm Calm - N/A   Clear
2:53 AM -8.0 °F - -14.1 °F 75% 30.14 in 10.0 mi Calm Calm - N/A   Clear
3:53 AM -7.1 °F - -13.0 °F 75% 30.14 in 10.0 mi Calm Calm - N/A   Clear
4:53 AM -5.1 °F - -9.9 °F 80% 30.12 in 10.0 mi Calm Calm - N/A   Clear
5:53 AM -4.0 °F - -9.9 °F 76% 30.13 in 10.0 mi Calm Calm - N/A   Clear
6:53 AM -2.9 °F -16.5 °F -8.0 °F 79% 30.14 in 10.0 mi WSW 6.9 mph - N/A   Clear
7:53 AM -2.9 °F -17.7 °F -8.0 °F 79% 30.16 in 10.0 mi West 8.1 mph - N/A   Clear
8:53 AM 1.0 °F -15.8 °F -4.0 °F 79% 30.19 in 10.0 mi WSW 11.5 mph - N/A   Clear
9:53 AM 7.0 °F -9.1 °F -0.0 °F 73% 30.19 in 10.0 mi West 12.7 mph - N/A   Partly Cloudy
10:53 AM 14.0 °F -3.9 °F 3.9 °F 64% 30.20 in 10.0 mi NW 20.7 mph 26.5 mph N/A   Overcast
11:06 AM 15.1 °F -0.1 °F 5.0 °F 64% 30.06 in 10.0 mi WNW 15.0 mph - N/A   Overcast
11:24 AM 15.1 °F -0.6 °F 5.0 °F 64% 30.06 in 10.0 mi WNW 16.1 mph 23.0 mph N/A   Overcast
11:53 AM 18.0 °F 2.6 °F 6.1 °F 60% 30.20 in 10.0 mi NW 17.3 mph - N/A   Overcast
12:53 PM 17.1 °F 1.0 °F 3.9 °F 56% 30.21 in 10.0 mi NW 18.4 mph 27.6 mph N/A   Overcast
1:53 PM 19.0 °F 3.6 °F 5.0 °F 54% 30.20 in 10.0 mi NW 18.4 mph 23.0 mph N/A   Overcast
2:53 PM 18.0 °F 4.8 °F 5.0 °F 57% 30.22 in 10.0 mi NW 12.7 mph - N/A   Overcast
3:53 PM 18.0 °F 6.1 °F 5.0 °F 57% 30.21 in 10.0 mi WNW 10.4 mph - N/A   Overcast
4:53 PM 16.0 °F 5.3 °F 3.9 °F 59% 30.21 in 10.0 mi NW 8.1 mph - N/A   Overcast
5:53 PM 14.0 °F 8.2 °F 3.9 °F 64% 30.22 in 10.0 mi WSW 3.5 mph - N/A   Overcast
6:53 PM 12.9 °F - 3.9 °F 67% 30.23 in 10.0 mi Calm Calm - N/A   Overcast
7:53 PM 9.0 °F - 1.9 °F 73% 30.23 in 10.0 mi Calm Calm - N/A   Mostly Cloudy
8:53 PM -2.0 °F -12.2 °F -7.1 °F 79% 30.25 in 10.0 mi NW 4.6 mph - N/A   Partly Cloudy
9:53 PM -2.0 °F -15.4 °F -7.1 °F 79% 30.24 in 10.0 mi WNW 6.9 mph - N/A   Mostly Cloudy
10:53 PM -0.0 °F - -6.0 °F 76% 30.25 in 10.0 mi Calm Calm - N/A   Overcast
11:53 PM 1.0 °F -11.7 °F -4.0 °F 79% 30.23 in 10.0 mi South 6.9 mph - N/A   Overcast